Terminal Aerodrome Forecast
Issued by NWS

Home | Current Version | Previous Version | Text Only | Print | Product List | Glossary On
Versions: 1 2 3 4 5 6 7 8 9 10 11 12 13 14 15 16 17 18 19 20 21 22
000
FTUS41 KBTV 220520
TAFSLK
TAF
KSLK 220520Z 2206/2306 00000KT 3SM BR OVC012
      TEMPO 2207/2211 1SM BR OVC006
     FM221600 15006KT P6SM OVC020
     FM230200 15005KT P6SM VCSH SCT007 OVC015=

USA.gov is the U.S. government's official web portal to all federal, state and local government web resources and services.